Madison, SD

9:57 AM CDT on October 23, 2017 (GMT -0500)
Madison Municipal

Weather History for KMDS - February, 2013

Change the Weather History Date:

Tuesday, February 19, 2013

  Actual Average Record
Temperature  
Mean Temperature 0 °F -  
Max Temperature 6 °F 29 °F 59 °F (2017)
Min Temperature -7 °F 10 °F -7 °F (2013)
Degree Days  
Heating Degree Days 66    
Moisture  
Dew Point -4 °F    
Average Humidity 88    
Maximum Humidity 100    
Minimum Humidity 78    
Precipitation  
Precipitation 0.00 in - - ()
Sea Level Pressure  
Sea Level Pressure 30.22 in    
Wind  
Wind Speed 22 mph (NNW)    
Max Wind Speed 30 mph    
Max Gust Speed 37 mph    
Visibility 10 miles    
Events Rain , Snow    
Averages and records for this station are not official NWS values.
T = Trace of Precipitation, MM = Missing Value Source: NWS Daily Summary

Daily Weather History Graph

Daily Weather History Graph

Search for Another Location

Airport or City:

Trip Planner

Search our weather history database for the weather conditions in past years. The results will help you decide how hot, cold, wet, or windy it might be!

Date:

Astronomy

Feb. 19, 2013 Rise Set
Actual Time 7:21 AM CST 6:03 PM CST
Civil Twilight 6:51 AM CST 6:33 PM CST
Nautical Twilight 6:18 AM CST 7:06 PM CST
Astronomical Twilight 5:44 AM CST 7:40 PM CST
Moon 12:29 PM CST (2/19) 3:00 AM CST (2/19)
Length of Visible Light 11h 41m
Length of Day
10h 42m
Waxing Gibbous, 67% of the Moon is Illuminated
Feb 19
Waxing Gibbous
Feb 25
Full
Mar 4
Last Quarter
Mar 11
New
Mar 19
First Quarter

Hourly Weather History & Observations

Time (CST) Temp. Windchill Dew Point Humidity Pressure Visibility Wind Dir Wind Speed Gust Speed Precip Events Conditions
12:00 AM 6.8 °F -16.6 °F 5.0 °F 92% 30.03 in 10.0 mi NNW 29.9 mph 35.7 mph N/A   Overcast
12:20 AM 6.8 °F -15.5 °F 5.0 °F 92% 30.04 in 10.0 mi NNW 26.5 mph 33.4 mph N/A Snow Light Snow
12:40 AM 6.8 °F -16.2 °F 5.0 °F 92% 30.05 in 10.0 mi NNW 28.8 mph 34.5 mph N/A   Overcast
1:00 AM 5.0 °F -17.9 °F 5.0 °F 100% 30.06 in 10.0 mi NW 26.5 mph 34.5 mph N/A Snow Light Snow
1:20 AM 5.0 °F -17.1 °F 5.0 °F 100% 30.06 in 10.0 mi NNW 24.2 mph 32.2 mph N/A   Overcast
1:40 AM 5.0 °F -16.7 °F 5.0 °F 100% 30.07 in 10.0 mi NNW 23.0 mph 31.1 mph N/A Rain Light Freezing Rain
1:50 AM 5.0 °F -17.1 °F 5.0 °F 100% 30.07 in 9.0 mi NNW 24.2 mph 31.1 mph N/A Rain Light Freezing Rain
2:20 AM 5.0 °F -17.5 °F 3.2 °F 92% 30.08 in 10.0 mi NNW 25.3 mph 35.7 mph N/A   Overcast
2:40 AM 5.0 °F -17.9 °F 1.4 °F 85% 30.08 in 10.0 mi NNW 26.5 mph 36.8 mph N/A Rain Light Freezing Rain
3:00 AM 5.0 °F -17.9 °F 3.2 °F 92% 30.09 in 10.0 mi NW 26.5 mph 29.9 mph N/A Rain Light Freezing Rain
3:20 AM 3.2 °F -19.9 °F 1.4 °F 92% 30.10 in 10.0 mi NW 25.3 mph 35.7 mph N/A Rain Light Freezing Rain
3:40 AM 1.4 °F -21.9 °F 1.4 °F 100% 30.10 in 10.0 mi NW 24.2 mph 32.2 mph N/A Rain Light Freezing Rain
4:00 AM 1.4 °F -22.3 °F 1.4 °F 100% 30.11 in 10.0 mi NW 25.3 mph 33.4 mph N/A   Overcast
4:20 AM 1.4 °F -21.9 °F -0.4 °F 92% 30.11 in 10.0 mi NW 24.2 mph 31.1 mph N/A   Overcast
4:40 AM -0.4 °F -24.7 °F -2.2 °F 92% 30.13 in 10.0 mi NW 25.3 mph 28.8 mph N/A   Overcast
5:00 AM -2.2 °F -26.7 °F -4.0 °F 92% 30.13 in 10.0 mi NW 24.2 mph - N/A   Overcast
5:40 AM -4.0 °F -29.1 °F -7.6 °F 85% 30.15 in 10.0 mi NW 24.2 mph 29.9 mph N/A   Overcast
6:00 AM -5.8 °F -31.0 °F -7.6 °F 92% 30.16 in 10.0 mi NNW 23.0 mph 27.6 mph N/A   Overcast
6:20 AM -5.8 °F -30.5 °F -7.6 °F 92% 30.17 in 10.0 mi NNW 21.9 mph 27.6 mph N/A   Mostly Cloudy
6:40 AM -5.8 °F -30.5 °F -9.4 °F 84% 30.17 in 10.0 mi NNW 21.9 mph - N/A   Mostly Cloudy
7:00 AM -7.6 °F -32.9 °F -9.4 °F 92% 30.18 in 10.0 mi NNW 21.9 mph 27.6 mph N/A   Mostly Cloudy
7:20 AM -7.6 °F -33.4 °F -9.4 °F 92% 30.19 in 10.0 mi NNW 23.0 mph 27.6 mph N/A   Mostly Cloudy
7:40 AM -7.6 °F -32.3 °F -9.4 °F 92% 30.20 in 10.0 mi NNW 20.7 mph - N/A   Partly Cloudy
8:00 AM -7.6 °F -32.9 °F -9.4 °F 92% 30.21 in 10.0 mi NW 21.9 mph - N/A   Partly Cloudy
8:20 AM -5.8 °F -30.5 °F -9.4 °F 84% 30.21 in 10.0 mi NNW 21.9 mph 28.8 mph N/A   Scattered Clouds
8:40 AM -5.8 °F -29.9 °F -9.4 °F 84% 30.22 in 10.0 mi NNW 20.7 mph 26.5 mph N/A   Mostly Cloudy
9:00 AM -5.8 °F -28.8 °F -9.4 °F 84% 30.23 in 10.0 mi NNW 18.4 mph 25.3 mph N/A   Mostly Cloudy
9:20 AM -4.0 °F -28.6 °F -9.4 °F 78% 30.24 in 10.0 mi NW 23.0 mph 27.6 mph N/A   Mostly Cloudy
9:40 AM -4.0 °F -29.1 °F -9.4 °F 78% 30.25 in 10.0 mi NW 24.2 mph 28.8 mph N/A   Scattered Clouds
10:00 AM -4.0 °F -27.0 °F -9.4 °F 78% 30.26 in 10.0 mi NNW 19.6 mph 27.6 mph N/A   Clear
10:20 AM -4.0 °F -28.1 °F -9.4 °F 78% 30.26 in 10.0 mi NNW 21.9 mph 26.5 mph N/A   Clear
10:40 AM -4.0 °F -27.6 °F -9.4 °F 78% 30.26 in 10.0 mi NW 20.7 mph 28.8 mph N/A   Clear
11:00 AM -4.0 °F -27.0 °F -7.6 °F 85% 30.28 in 10.0 mi NW 19.6 mph 24.2 mph N/A   Clear
11:20 AM -2.2 °F -24.7 °F -7.6 °F 78% 30.28 in 10.0 mi NW 19.6 mph 25.3 mph N/A   Clear
11:40 AM -2.2 °F -25.7 °F -7.6 °F 78% 30.28 in 10.0 mi NNW 21.9 mph - N/A   Clear
12:00 PM -2.2 °F -23.5 °F -5.8 °F 85% 30.29 in 10.0 mi NW 17.3 mph - N/A   Clear
12:20 PM -0.4 °F -22.3 °F -4.0 °F 85% 30.28 in 10.0 mi NW 19.6 mph - N/A   Clear
12:40 PM -0.4 °F -22.3 °F -4.0 °F 85% 30.28 in 10.0 mi NNW 19.6 mph 23.0 mph N/A   Clear
1:00 PM -0.4 °F -22.3 °F -4.0 °F 85% 30.29 in 10.0 mi NW 19.6 mph 23.0 mph N/A   Clear
1:20 PM -0.4 °F -21.7 °F -4.0 °F 85% 30.28 in 10.0 mi NW 18.4 mph - N/A   Clear
1:40 PM -0.4 °F -21.7 °F -2.2 °F 92% 30.29 in 10.0 mi NW 18.4 mph - N/A   Clear
2:00 PM -0.4 °F -21.7 °F -2.2 °F 92% 30.28 in 10.0 mi NW 18.4 mph - N/A   Clear
2:20 PM -0.4 °F -21.2 °F -2.2 °F 92% 30.29 in 10.0 mi NW 17.3 mph 23.0 mph N/A   Clear
2:40 PM -0.4 °F -21.7 °F -2.2 °F 92% 30.28 in 10.0 mi NW 18.4 mph - N/A   Clear
3:00 PM 1.4 °F -19.4 °F -2.2 °F 85% 30.28 in 10.0 mi NNW 18.4 mph - N/A   Clear
3:20 PM 1.4 °F -19.4 °F -2.2 °F 85% 30.28 in 10.0 mi NNW 18.4 mph - N/A   Clear
3:40 PM 1.4 °F -17.6 °F -2.2 °F 85% 30.28 in 10.0 mi NNW 15.0 mph - N/A   Clear
4:00 PM 1.4 °F -16.9 °F -2.2 °F 85% 30.29 in 10.0 mi NNW 13.8 mph - N/A   Clear
4:20 PM 1.4 °F -18.2 °F -2.2 °F 85% 30.29 in 10.0 mi NNW 16.1 mph - N/A   Clear
4:40 PM 1.4 °F -17.6 °F -2.2 °F 85% 30.29 in 10.0 mi NNW 15.0 mph - N/A   Clear
5:00 PM 1.4 °F -17.6 °F -2.2 °F 85% 30.28 in 10.0 mi NNW 15.0 mph - N/A   Clear
6:20 PM -0.4 °F -17.6 °F -4.0 °F 85% 30.28 in 10.0 mi NNE 11.5 mph - N/A   Clear
6:40 PM -0.4 °F -17.6 °F -4.0 °F 85% 30.29 in 10.0 mi NNW 11.5 mph - N/A   Clear
7:00 PM -2.2 °F -16.8 °F -4.0 °F 92% 30.30 in 10.0 mi North 8.1 mph - N/A   Clear
7:40 PM -2.2 °F -16.8 °F -4.0 °F 92% 30.30 in 10.0 mi NNW 8.1 mph - N/A   Clear
8:00 PM -2.2 °F -14.2 °F -4.0 °F 92% 30.31 in 10.0 mi NNW 5.8 mph - N/A   Clear
8:20 PM -2.2 °F -18.0 °F -5.8 °F 85% 30.31 in 10.0 mi NNW 9.2 mph - N/A   Clear
8:40 PM -2.2 °F -18.0 °F -5.8 °F 85% 30.32 in 10.0 mi NNW 9.2 mph - N/A   Clear
9:00 PM -2.2 °F -15.6 °F -5.8 °F 85% 30.32 in 10.0 mi North 6.9 mph - N/A   Clear
9:20 PM -2.2 °F -19.9 °F -5.8 °F 85% 30.31 in 10.0 mi North 11.5 mph - N/A   Clear
9:40 PM -4.0 °F -17.8 °F -5.8 °F 92% 30.32 in 10.0 mi North 6.9 mph - N/A   Clear
10:00 PM -4.0 °F -20.2 °F -7.6 °F 85% 30.32 in 10.0 mi North 9.2 mph - N/A   Clear
10:20 PM -4.0 °F -20.2 °F -7.6 °F 85% 30.33 in 10.0 mi North 9.2 mph - N/A   Clear
10:40 PM -4.0 °F -22.1 °F -7.6 °F 85% 30.33 in 10.0 mi NNE 11.5 mph - N/A   Clear
11:00 PM -4.0 °F -22.1 °F -7.6 °F 85% 30.33 in 10.0 mi NNE 11.5 mph - N/A   Clear
11:20 PM -4.0 °F -23.0 °F -7.6 °F 85% 30.32 in 10.0 mi NE 12.7 mph - N/A   Clear